#timestamp,LO_Frequency,Hit,StdDev 
1507237215.9,286047005.2,P
1507237235.7,286047010.2,P
1507237255.6,286047008.2,Y
1507237275.4,286047002.6,P
1507237295.2,286047002.4,N
1507237315.0,286046998.6,N
1507237315.9,286046998.6,N
1507237335.8,286046997.1,N
1507237355.6,286046996.5,N
1507237375.4,286046998.4,N
1507237395.3,286046995.5,N
1507237415.1,286046993.5,N
1507237416.0,286046993.5,N
1507237435.8,286046994.1,N
1507237455.7,286046992.5,N
1507237475.5,286046990.9,N
1507237495.3,286046990.4,N
1507237515.2,286046989.8,N
1507237535.9,286046987.6,N
1507237555.7,286046987.6,N
1507237575.6,286046987.8,N
1507237595.4,286046989.8,N
1507237615.2,286046986.9,N
1507237635.0,286046987.5,N
1507237635.9,286046987.5,N
1507237655.8,286046985.3,N
1507237675.6,286046985.9,N
1507237695.4,286046986.2,N
1507237715.3,286046985.2,N
1507237735.1,286046984.8,N
1507237736.0,286046984.8,N
1507237755.8,286046982.3,N
1507237775.7,286046981.6,Y
1507237795.5,286046985.2,P
1507237815.3,286046985.6,P
1507237835.2,286046991.2,N
1507237855.9,286046994.6,N
1507237875.7,286046999.0,N
1507237895.6,286047001.3,N
1507237915.4,286047003.1,N
1507237935.2,286047007.0,N
1507237955.0,286047005.6,N
1507237956.0,286047005.6,N
1507237975.8,286047007.3,N
1507237995.6,286047002.1,N
1507238015.4,286047000.1,N
1507238035.3,286047002.5,N
1507238055.1,286047002.5,N
1507238075.8,286046999.7,N
1507238095.7,286047001.0,N
1507238115.5,286047000.6,N
1507238135.3,286047003.2,N
1507238155.2,286047005.4,N
1507238175.9,286047010.0,N
1507238195.7,286047010.3,N
1507238215.6,286047007.8,N
1507238235.4,286047013.1,N
1507238255.2,286047015.0,N
1507238275.1,286047015.4,N
1507238276.0,286047015.4,N
1507238295.8,286047011.5,N
1507238315.6,286047017.1,N
1507238335.4,286047016.8,N
1507238355.3,286047011.9,N
1507238375.1,286047012.3,N
1507238395.8,286047008.3,N
1507238415.7,286047004.6,N
1507238435.5,286047003.2,N
1507238455.3,286047005.4,N
1507238475.2,286047005.1,N
1507238495.9,286047006.4,N
1507238515.7,286047007.9,N
1507238535.6,286047010.0,N
1507238555.4,286047007.2,N
1507238575.2,286047003.0,N
1507238595.1,286047002.1,N
1507238596.0,286047002.1,N
1507238615.8,286046996.7,N
1507238635.6,286046998.0,N
1507238655.5,286046995.0,N
1507238675.3,286046994.9,N
1507238695.1,286046997.9,N
1507238715.8,286046997.3,N
1507238735.7,286046996.2,N
1507238755.5,286046992.0,N
1507238775.3,286046990.2,N
1507238795.2,286046988.5,N
1507238815.9,286046990.9,N
1507238835.7,286046993.1,N
1507238855.6,286046990.7,N
1507238875.4,286046992.4,N
1507238895.2,286046989.9,N
1507238915.1,286046989.3,N
1507238916.0,286046989.3,N
1507238935.8,286046991.7,N
1507238955.6,286046992.6,N
1507238975.5,286046990.9,N
1507238995.3,286046990.3,N
1507239015.1,286046990.9,N
1507239035.9,286046991.6,N
1507239055.7,286046988.9,N
1507239075.5,286046993.2,N
1507239095.3,286046994.7,N
1507239115.2,286046994.3,N
1507239135.0,286046991.4,N
1507239135.9,286046991.4,N
1507239155.7,286046991.2,N
1507239175.6,286046988.9,Y
1507239195.4,286046999.6,P
1507239215.2,286046998.8,N
1507239235.1,286046998.6,N
1507239236.0,286046998.6,N
1507239255.8,286047001.1,N
1507239275.6,286046998.3,N
1507239295.5,286046998.1,N
1507239315.3,286047003.9,N
1507239335.1,286047000.1,N
1507239355.9,286047005.9,N
1507239375.7,286047008.1,N
1507239395.5,286047008.5,N
1507239415.4,286047009.1,N
1507239435.2,286047004.7,N
1507239455.0,286047003.0,N
1507239455.9,286047003.0,N
1507239475.8,286047004.7,N
1507239495.6,286047004.6,N
1507239515.4,286047003.2,N
1507239535.2,286047002.6,N
1507239555.1,286047001.7,N
1507239556.0,286047001.7,N
1507239575.8,286047002.5,N
1507239595.6,286047001.7,N
1507239615.5,286047003.4,N
1507239635.3,286047001.7,N
1507239655.1,286047005.0,N
1507239675.9,286047003.0,N
1507239695.7,286047005.9,N
1507239715.5,286047005.2,N
1507239735.4,286047004.8,N
1507239755.2,286047007.3,N
1507239775.0,286047007.2,N
1507239775.9,286047007.2,N
1507239795.8,286047003.8,N
1507239815.6,286047003.3,N
1507239835.4,286047005.6,N
1507239855.3,286047005.5,N
1507239875.1,286047002.9,N
1507239876.0,286047002.9,N
1507239895.8,286047004.5,N
1507239915.7,286047009.2,Y
1507239935.5,286047003.0,P
1507239955.3,286047001.3,N
1507239975.2,286047001.6,N
1507239995.9,286046999.9,N
1507240015.7,286047006.9,Y
1507240035.6,286047002.9,P
1507240055.4,286047009.1,P
1507240075.2,286047009.9,P
1507240095.1,286047016.7,Y
1507240096.0,286047016.7,P
1507240115.8,286047013.6,N
1507240135.6,286047013.1,N
1507240155.5,286047017.0,Y
1507240175.3,286047000.7,P
1507240195.1,286047002.2,N
1507240215.9,286047003.6,N
1507240235.7,286047000.0,N
1507240255.5,286046999.3,N
1507240275.4,286046998.7,N
1507240295.2,286046997.0,N
1507240315.0,286046998.7,N
1507240315.9,286046998.7,N
1507240335.8,286046998.1,N
1507240355.6,286046998.5,N
1507240375.4,286046999.4,N
1507240395.2,286047000.6,N
1507240415.1,286047000.6,N
1507240416.0,286047000.6,N
1507240435.8,286046998.2,N
1507240455.6,286046998.2,N
1507240475.5,286047000.9,N
1507240495.3,286046999.6,N
1507240515.1,286047000.9,N
1507240535.9,286047002.8,N
1507240555.7,286047002.4,N
1507240575.5,286046998.9,N
1507240595.4,286046998.2,N
1507240615.2,286046997.2,N
1507240635.0,286046999.6,N
1507240635.9,286046999.6,N
1507240655.8,286047001.0,N
1507240675.6,286046999.2,N
1507240695.4,286047005.8,N
1507240715.2,286046999.8,N
1507240735.1,286046998.9,N
1507240736.0,286046998.9,N
1507240755.8,286046993.8,Y
1507240775.7,286046989.8,P
1507240795.5,286046985.4,N
